STARLINK-4426, 53484

Orbit data source: Space-Track

STARLINK-4426, 53484 is a payload satellite owned by SpaceX/Seattle (US) in SSO that was launched on Fri, 12 Aug 2022 UTC via an FALCON 9 launch vehicle from the Air Force Western Test Range (AFWTR). Payload-class satellites include a variety of spacecraft equipped with specific instruments for various scientific and technological missions. These include communications satellites like Starlink; space stations such as the ISS; scientific satellites like the Hubble; Earth observation satellites from companies like Planet Labs, Umbra, and HawkEye 360; GPS; miniature CubeSats for education and research; and military/defense satellites.

Loading next visibility...
Identifier
53484, 2022-099V
Orbit
SSO
Country
Flag of USUS
Related business
Manufacturer
SpaceX/Seattle
Mission
Operational Commercial Communications
Bus & Motor
STARLINK, Unknown motor
Mass
300 kg wet, ~275 kg dry
Launch date (UTC)
2022-08-12 (3 years ago)
Launch vehicle
FALCON 9
Launch site
Air Force Western Test Range (AFWTR)
Object type
Payload
Rocket body
Debris
Shape & HBR
Box + 1 Pan, 10.1 m
Radar Cross Section
13.562 m², Large (>1 m²)

Expand to show TLE details & history
Last TLE update: 9 hours ago

TLE from 9 hours ago
0 STARLINK-4426
1 53484U 22099V   25293.58081157  .00035109  00000-0  24364-2 0  9991
2 53484  97.6029  53.0857 0001571  93.1612 266.9794 15.05481120174960
Epoch: 2025-10-20T13:56Z
TLE epoch observation values (Epoch: 2025-10-20T13:56:22.119Z)
Latitude
-0.00008°
Longitude
174.71247°
Altitude
553.152 km
Speed
7.585 km/s
True Right ascension
03h 32m 20s
True Declination
0° 00' 00"
Sunlit
Object was in full shadow at epoch
Visualization orbit readout
Latitude
Unknown
Longitude
Unknown
Altitude
Unknown
Speed
Unknown
Apparent Right ascension
Unknown
Apparent Declination
Unknown
Sunlit
N/A
Visualization observer readout
Local Sidereal Time
18:16:51
Azimuth
Unknown
Elevation
Unknown
Doppler factor
Unknown
Orbital elements
Apogee altitude
548.111 km
Perigee altitude
545.935 km
Semi-major axis
6,925.16 km
Eccentricity
0.00016
Inclination
97.6029°
RAAN
53.0857°
Arg. of periapsis
93.1612°
True anomaly
266.96142°
Mean anomaly
266.9794°
Eccentric anomaly
266.97041°
Mean motion
3.76616 °/min
Orbital period
95.59 mins
BSTAR
0.0024364
Loading maneuver chart data...
Computing Atmospheric mass density...
Loading historical data...
Loading historical data...
Loading historical data...
Loading historical data...
Loading historical data...
Loading historical data...
Loading historical data...

Documentation

Showing up to 5 results
|